Location: Newark
(23.1300°N, 73.6109°E)
Time: 07:59:50
(UTC+00:00)

Hubble Space Telescope - Pass Details

Date: 29 July 2021
Orbit: 535 x 539 km, 28.5° (Epoch: 26 September)

Event Time Altitude Azimuth Distance (km) Brightness Sun altitude
Rises 16:39:50 0° 288° (WNW) 2,667 5.1 -34.1°
Reaches altitude 10° 16:42:05 10° 289° (WNW) 1,775 4.1 -34.5°
Enters shadow 16:42:28 12° 289° (WNW) 1,630 3.8 -34.6°
